| time (UTC) | temp C | wind direction | speed KPH | gust KPH | rain 1hr cm | rain 24hr cm | rain mn cm | humidity % | barometer mb |
| 20260510120031 | 13 | 281 | 0.0 | 0.0 | 0.00 | 0.00 | 0.00 | 88 | 1011.9 |
| 20260510114559 | 13 | 302 | 0.0 | 0.0 | 0.00 | 0.00 | 0.00 | 89 | 1011.8 |
| 20260510113031 | 12 | 302 | 0.0 | 0.0 | 0.00 | 0.00 | 0.00 | 91 | 1011.6 |
| 20260510111600 | 12 | 278 | 0.0 | 0.0 | 0.00 | 0.00 | 0.00 | 92 | 1011.4 |
| 20260510110029 | 11 | 278 | 0.0 | 0.0 | 0.00 | 0.00 | 0.00 | 92 | 1011.2 |
| 20260510104601 | 11 | 278 | 0.0 | 0.0 | 0.00 | 0.00 | 0.00 | 91 | 1010.9 |
| 20260510103049 | 11 | 278 | 0.0 | 0.0 | 0.00 | 0.00 | 0.00 | 91 | 1010.7 |
| 20260510101553 | 11 | 278 | 0.0 | 0.0 | 0.00 | 0.00 | 0.00 | 90 | 1010.3 |
| 20260510100043 | 11 | 278 | 0.0 | 0.0 | 0.00 | 0.00 | 0.00 | 90 | 1010.2 |
| 20260510094509 | 12 | 10 | 0.0 | 0.0 | 0.00 | 0.00 | 0.00 | 90 | 1010.2 |
| 20260510093042 | 12 | 10 | 0.0 | 0.0 | 0.00 | 0.00 | 0.00 | 89 | 1010.3 |
| 20260510091502 | 12 | 14 | 0.0 | 0.0 | 0.00 | 0.00 | 0.00 | 90 | 1010.2 |
| 20260510090037 | 12 | 15 | 0.0 | 0.0 | 0.00 | 0.00 | 0.00 | 90 | 1010.0 |
| 20260510084504 | 12 | 22 | 0.0 | 0.0 | 0.00 | 0.00 | 0.00 | 90 | 1010.1 |
| 20260510083036 | 12 | 78 | 0.0 | 0.0 | 0.00 | 0.00 | 0.00 | 89 | 1010.0 |
| 20260510081624 | 12 | 78 | 0.0 | 0.0 | 0.00 | 0.00 | 0.00 | 89 | 1009.7 |
| 20260510080031 | 12 | 78 | 0.0 | 0.0 | 0.00 | 0.00 | 0.00 | 89 | 1009.4 |
| 20260510074558 | 12 | 78 | 0.0 | 0.0 | 0.00 | 0.00 | 0.00 | 89 | 1009.3 |
| 20260510073029 | 12 | 78 | 0.0 | 0.0 | 0.00 | 0.00 | 0.00 | 88 | 1009.1 |
| 20260510071601 | 12 | 78 | 0.0 | 0.0 | 0.00 | 0.00 | 0.00 | 88 | 1009.0 |
| 20260510070031 | 12 | 78 | 0.0 | 0.0 | 0.00 | 0.00 | 0.00 | 87 | 1009.1 |
| 20260510064600 | 13 | 78 | 0.0 | 0.0 | 0.00 | 0.00 | 0.00 | 87 | 1008.8 |
| 20260510063048 | 13 | 78 | 0.0 | 0.0 | 0.00 | 0.00 | 0.00 | 86 | 1008.7 |
| 20260510061554 | 13 | 78 | 0.0 | 0.0 | 0.00 | 0.00 | 0.00 | 85 | 1008.8 |
| 20260510060049 | 13 | 78 | 0.0 | 0.0 | 0.00 | 0.00 | 0.00 | 85 | 1008.8 |
| 20260510054554 | 14 | 78 | 0.0 | 0.0 | 0.00 | 0.00 | 0.00 | 84 | 1009.0 |
| 20260510053043 | 14 | 78 | 0.0 | 0.0 | 0.00 | 0.00 | 0.00 | 84 | 1009.0 |
| 20260510051601 | 15 | 78 | 0.0 | 0.0 | 0.00 | 0.00 | 0.00 | 83 | 1009.1 |
| 20260510050043 | 15 | 79 | 0.0 | 0.0 | 0.00 | 0.00 | 0.00 | 82 | 1009.0 |
| 20260510044524 | 15 | 79 | 0.0 | 0.0 | 0.00 | 0.00 | 0.00 | 82 | 1009.1 |
| 20260510043052 | 15 | 79 | 0.0 | 0.0 | 0.00 | 0.00 | 0.00 | 82 | 1009.1 |
| 20260510041556 | 15 | 78 | 0.0 | 0.0 | 0.00 | 0.00 | 0.00 | 82 | 1009.1 |
| 20260510040046 | 15 | 84 | 0.0 | 0.0 | 0.00 | 0.00 | 0.00 | 81 | 1009.0 |
| 20260510034550 | 15 | 83 | 0.0 | 0.0 | 0.00 | 0.00 | 0.00 | 81 | 1009.0 |
| 20260510033055 | 15 | 84 | 0.0 | 0.0 | 0.00 | 0.00 | 0.00 | 81 | 1009.0 |
| 20260510031548 | 16 | 84 | 0.0 | 0.0 | 0.00 | 0.00 | 0.00 | 81 | 1008.9 |
| 20260510030044 | 16 | 86 | 0.0 | 0.0 | 0.00 | 0.00 | 0.00 | 81 | 1008.8 |
| 20260510024504 | 16 | 86 | 0.0 | 0.0 | 0.00 | 0.00 | 0.00 | 81 | 1008.7 |
| 20260510023034 | 16 | 86 | 0.0 | 0.0 | 0.00 | 0.00 | 0.00 | 80 | 1008.7 |
| 20260510021505 | 16 | 86 | 0.0 | 0.0 | 0.00 | 0.00 | 0.00 | 80 | 1008.8 |
| 20260510020034 | 16 | 86 | 0.0 | 0.0 | 0.00 | 0.00 | 0.00 | 79 | 1008.8 |
| 20260510014503 | 17 | 86 | 0.0 | 0.0 | 0.00 | 0.00 | 0.00 | 78 | 1008.6 |
| 20260510013034 | 17 | 109 | 0.0 | 0.0 | 0.00 | 0.00 | 0.00 | 78 | 1008.5 |
| 20260510011558 | 17 | 108 | 0.0 | 0.0 | 0.00 | 0.00 | 0.00 | 77 | 1008.2 |
| 20260510010035 | 17 | 158 | 0.0 | 0.0 | 0.00 | 0.00 | 0.00 | 75 | 1008.1 |
| 20260510004501 | 18 | 158 | 0.0 | 0.0 | 0.00 | 0.00 | 0.00 | 73 | 1007.9 |
| 20260510003029 | 18 | 158 | 0.0 | 0.0 | 0.00 | 0.00 | 0.00 | 72 | 1007.7 |
| 20260510001559 | 18 | 158 | 0.0 | 0.0 | 0.00 | 0.00 | 0.00 | 71 | 1007.7 |
| 20260510000044 | 19 | 158 | 0.0 | 0.0 | 0.00 | 0.00 | 0.00 | 71 | 1007.7 |
| 20260509234504 | 19 | 158 | 0.0 | 0.0 | 0.00 | 0.00 | 0.00 | 70 | 1007.5 |
| 20260509233038 | 20 | 158 | 0.0 | 0.0 | 0.00 | 0.00 | 0.00 | 69 | 1007.4 |
| 20260509231503 | 20 | 158 | 0.0 | 0.0 | 0.00 | 0.00 | 0.00 | 68 | 1007.2 |
| 20260509230034 | 20 | 116 | 0.0 | 1.6 | 0.00 | 0.00 | 0.00 | 67 | 1007.1 |
| 20260509224600 | 21 | 160 | 0.0 | 0.0 | 0.00 | 0.00 | 0.00 | 66 | 1007.1 |
| 20260509223030 | 21 | 160 | 0.0 | 0.0 | 0.00 | 0.00 | 0.00 | 65 | 1007.3 |
| 20260509221600 | 21 | 161 | 0.0 | 0.0 | 0.00 | 0.00 | 0.00 | 65 | 1007.2 |
| 20260509220030 | 20 | 166 | 0.0 | 0.0 | 0.00 | 0.00 | 0.00 | 66 | 1007.2 |
| 20260509214502 | 20 | 159 | 0.0 | 0.0 | 0.00 | 0.00 | 0.00 | 68 | 1007.3 |
| 20260509213031 | 20 | 157 | 0.0 | 0.0 | 0.00 | 0.00 | 0.00 | 68 | 1007.5 |
| 20260509211557 | 20 | 157 | 0.0 | 0.0 | 0.00 | 0.00 | 0.00 | 68 | 1007.5 |
| 20260509210034 | 20 | 159 | 0.0 | 0.0 | 0.00 | 0.00 | 0.00 | 69 | 1007.3 |
| 20260509204557 | 20 | 155 | 0.0 | 0.0 | 0.00 | 0.00 | 0.00 | 66 | 1007.2 |
| 20260509203043 | 21 | 155 | 0.0 | 0.0 | 0.00 | 0.00 | 0.00 | 66 | 1007.0 |
| 20260509201601 | 20 | 163 | 0.0 | 0.0 | 0.00 | 0.00 | 0.00 | 64 | 1007.3 |
| 20260509200054 | 20 | 155 | 0.0 | 0.0 | 0.00 | 0.00 | 0.00 | 66 | 1007.5 |
| 20260509194551 | 20 | 52 | 0.0 | 3.2 | 0.00 | 0.00 | 0.00 | 65 | 1007.8 |
| 20260509193059 | 19 | 157 | 0.0 | 0.0 | 0.00 | 0.00 | 0.00 | 67 | 1007.9 |
| 20260509191550 | 19 | 148 | 0.0 | 0.0 | 0.00 | 0.00 | 0.00 | 66 | 1008.1 |
| 20260509190041 | 20 | 153 | 0.0 | 4.8 | 0.00 | 0.00 | 0.00 | 65 | 1008.4 |
| 20260509184559 | 19 | 30 | 0.0 | 1.6 | 0.00 | 0.00 | 0.00 | 63 | 1008.5 |
| 20260509183038 | 19 | 351 | 0.0 | 0.0 | 0.00 | 0.00 | 0.00 | 65 | 1008.5 |
| 20260509181549 | 19 | 46 | 0.0 | 0.0 | 0.00 | 0.00 | 0.00 | 63 | 1008.9 |
| 20260509180041 | 19 | 355 | 0.0 | 1.6 | 0.00 | 0.00 | 0.00 | 64 | 1009.2 |
| 20260509174555 | 19 | 283 | 0.0 | 0.0 | 0.00 | 0.00 | 0.00 | 63 | 1009.0 |
| 20260509173044 | 19 | 272 | 0.0 | 1.6 | 0.00 | 0.00 | 0.00 | 64 | 1009.0 |
| 20260509171603 | 19 | 249 | 0.0 | 0.0 | 0.00 | 0.00 | 0.00 | 64 | 1009.1 |
| 20260509164549 | 19 | 244 | 0.0 | 14.5 | 0.00 | 0.00 | 0.00 | 63 | 1009.1 |
| 20260509163040 | 20 | 278 | 0.0 | 1.6 | 0.00 | 0.00 | 0.00 | 62 | 1009.2 |
| 20260509161552 | 19 | 248 | 0.0 | 0.0 | 0.00 | 0.00 | 0.00 | 63 | 1009.3 |
| 20260509160038 | 18 | 261 | 0.0 | 17.7 | 0.00 | 0.00 | 0.00 | 64 | 1009.5 |
| 20260509154504 | 18 | 242 | 0.0 | 12.9 | 0.00 | 0.00 | 0.00 | 63 | 1009.6 |
| 20260509153037 | 18 | 233 | 0.0 | 0.0 | 0.00 | 0.00 | 0.00 | 64 | 1009.7 |
| 20260509151502 | 17 | 264 | 0.0 | 1.6 | 0.00 | 0.00 | 0.00 | 65 | 1010.0 |
| 20260509150033 | 17 | 236 | 0.0 | 0.0 | 0.00 | 0.00 | 0.00 | 65 | 1010.2 |
| 20260509144501 | 17 | 265 | 0.0 | 3.2 | 0.00 | 0.00 | 0.00 | 66 | 1010.5 |
| 20260509143027 | 17 | 250 | 0.0 | 1.6 | 0.00 | 0.00 | 0.00 | 65 | 1010.4 |
| 20260509141554 | 17 | 220 | 0.0 | 1.6 | 0.00 | 0.00 | 0.00 | 65 | 1010.3 |
| 20260509140026 | 16 | 245 | 0.0 | 16.1 | 0.00 | 0.00 | 0.00 | 65 | 1010.3 |
| 20260509134554 | 16 | 236 | 0.0 | 0.0 | 0.00 | 0.00 | 0.00 | 66 | 1010.3 |
| 20260509133038 | 16 | 241 | 0.0 | 12.9 | 0.00 | 0.00 | 0.00 | 66 | 1010.3 |
| 20260509131547 | 16 | 249 | 0.0 | 11.3 | 0.00 | 0.00 | 0.00 | 65 | 1010.3 |
| 20260509130042 | 16 | 234 | 0.0 | 3.2 | 0.00 | 0.00 | 0.00 | 67 | 1010.2 |
| 20260509124605 | 15 | 215 | 0.0 | 9.7 | 0.00 | 0.00 | 0.00 | 67 | 1010.3 |
| 20260509123040 | 15 | 232 | 0.0 | 6.4 | 0.00 | 0.00 | 0.00 | 68 | 1010.1 |
| 20260509121552 | 15 | 226 | 0.0 | 0.0 | 0.00 | 0.00 | 0.00 | 69 | 1010.1 |